SKC827P EGBB-LFPG

Flight info

Callsign SKC827P
Flight time 0h 50m
Altitude 25000
Route COWLY UL612 WOD UM605 BIBAX
Aircraft B77L/H-SDE1E2E3FGHIJ2J3J4J5M1RWXY/LB1D1

Departure

Time 2026-05-01 12:35
Airport Birmingham Airport (EGBB)

Arrival

Time 2026-05-01 13:26
Airport Charles de Gaulle International Airport (LFPG)
Time Latitude Longitude Altitude Speed Heading
2026-05-01 12:11 52.45472 -1.74047 328 ft 0 kts 146°
2026-05-01 12:25 52.45501 -1.74079 326 ft 2 kts 146°
2026-05-01 12:25 52.45519 -1.74100 323 ft 4 kts 144°
2026-05-01 12:26 52.45532 -1.74117 323 ft 4 kts 223°
2026-05-01 12:26 52.45512 -1.74169 324 ft 4 kts 235°
2026-05-01 12:26 52.45507 -1.74180 326 ft 4 kts 235°
2026-05-01 12:27 52.45499 -1.74200 323 ft 4 kts 236°
2026-05-01 12:27 52.45489 -1.74223 324 ft 0 kts 236°
2026-05-01 12:29 52.45488 -1.74227 324 ft 1 kts 236°
2026-05-01 12:29 52.45486 -1.74345 324 ft 9 kts 290°
2026-05-01 12:30 52.45519 -1.74615 323 ft 14 kts 311°
2026-05-01 12:30 52.45606 -1.74723 320 ft 18 kts 326°
2026-05-01 12:30 52.45721 -1.74850 317 ft 14 kts 326°
2026-05-01 12:31 52.45811 -1.74949 314 ft 17 kts 327°
2026-05-01 12:31 52.45919 -1.75065 312 ft 20 kts 326°
2026-05-01 12:31 52.46030 -1.75187 312 ft 17 kts 324°
2026-05-01 12:31 52.46130 -1.75305 310 ft 18 kts 324°
2026-05-01 12:32 52.46240 -1.75430 310 ft 20 kts 325°
2026-05-01 12:32 52.46443 -1.75651 310 ft 18 kts 325°
2026-05-01 12:32 52.46544 -1.75766 311 ft 18 kts 325°
2026-05-01 12:33 52.46602 -1.75832 312 ft 10 kts 325°
2026-05-01 12:33 52.46632 -1.75904 314 ft 8 kts 264°
2026-05-01 12:33 52.46623 -1.75938 311 ft 2 kts 242°
2026-05-01 12:33 52.46608 -1.75979 313 ft 6 kts 237°
2026-05-01 12:34 52.46581 -1.76039 311 ft 7 kts 234°
2026-05-01 12:34 52.46541 -1.76084 313 ft 7 kts 182°
2026-05-01 12:34 52.46519 -1.76061 314 ft 0 kts 144°
2026-05-01 12:35 52.46296 -1.75809 316 ft 85 kts 146°
2026-05-01 12:35 52.45584 -1.75022 366 ft 154 kts 144°
2026-05-01 12:35 52.44677 -1.73999 1052 ft 158 kts 146°
2026-05-01 12:36 52.43761 -1.72948 1953 ft 162 kts 146°
2026-05-01 12:36 52.42803 -1.71852 2701 ft 178 kts 148°
2026-05-01 12:36 52.41681 -1.70634 3136 ft 210 kts 151°
2026-05-01 12:36 52.40233 -1.69675 3478 ft 239 kts 166°
2026-05-01 12:37 52.38587 -1.69007 4366 ft 246 kts 169°
2026-05-01 12:37 52.36946 -1.68206 5275 ft 249 kts 157°
2026-05-01 12:37 52.35384 -1.66933 6229 ft 253 kts 152°
2026-05-01 12:37 52.33900 -1.65390 7252 ft 258 kts 148°
2026-05-01 12:38 52.32399 -1.63724 8318 ft 260 kts 148°
2026-05-01 12:38 52.30891 -1.62096 9379 ft 263 kts 149°
2026-05-01 12:38 52.29331 -1.60452 10415 ft 267 kts 149°
2026-05-01 12:38 52.27743 -1.58801 11363 ft 272 kts 150°
2026-05-01 12:39 52.26130 -1.57132 12451 ft 276 kts 150°
2026-05-01 12:39 52.24472 -1.55591 13602 ft 279 kts 155°
2026-05-01 12:39 52.22710 -1.54208 14629 ft 284 kts 157°
2026-05-01 12:39 52.20908 -1.52817 15609 ft 289 kts 156°
2026-05-01 12:40 52.19071 -1.51386 16597 ft 294 kts 156°
2026-05-01 12:40 52.17208 -1.49923 17549 ft 300 kts 156°
2026-05-01 12:40 52.15336 -1.48447 18090 ft 304 kts 156°
2026-05-01 12:40 52.13422 -1.46934 18135 ft 307 kts 156°
2026-05-01 12:41 52.11510 -1.45425 18152 ft 305 kts 156°
2026-05-01 12:41 52.09605 -1.43921 18159 ft 302 kts 156°
2026-05-01 12:41 52.07709 -1.42426 18165 ft 305 kts 156°
2026-05-01 12:41 52.05805 -1.40925 18162 ft 304 kts 156°
2026-05-01 12:42 52.03912 -1.39434 18333 ft 299 kts 156°
2026-05-01 12:42 52.02055 -1.37974 19283 ft 291 kts 156°
2026-05-01 12:42 52.00254 -1.36557 20322 ft 289 kts 156°
2026-05-01 12:42 51.98411 -1.35113 20963 ft 299 kts 156°
2026-05-01 12:43 51.96512 -1.33628 21697 ft 306 kts 156°
2026-05-01 12:43 51.94579 -1.32115 22539 ft 310 kts 156°
2026-05-01 12:43 51.92627 -1.30587 23460 ft 313 kts 156°
2026-05-01 12:43 51.90651 -1.29041 24243 ft 318 kts 156°
2026-05-01 12:44 51.88642 -1.27472 24891 ft 323 kts 156°
2026-05-01 12:44 51.86633 -1.25905 25151 ft 327 kts 156°
2026-05-01 12:44 51.82515 -1.22696 25127 ft 327 kts 156°
2026-05-01 12:45 51.78388 -1.19487 25556 ft 333 kts 156°
2026-05-01 12:45 51.76287 -1.17856 26438 ft 333 kts 156°
2026-05-01 12:45 51.74213 -1.16245 27267 ft 335 kts 156°
2026-05-01 12:46 51.72088 -1.14599 27995 ft 341 kts 156°
2026-05-01 12:46 51.69924 -1.12927 28700 ft 346 kts 156°
2026-05-01 12:46 51.67751 -1.11247 29416 ft 351 kts 156°
2026-05-01 12:46 51.65531 -1.09530 30140 ft 356 kts 156°
2026-05-01 12:47 51.63281 -1.07794 30768 ft 360 kts 156°
2026-05-01 12:47 51.61018 -1.05976 31413 ft 364 kts 151°
2026-05-01 12:47 51.58890 -1.03736 32043 ft 368 kts 146°
2026-05-01 12:47 51.56820 -1.01274 32642 ft 372 kts 145°
2026-05-01 12:48 51.54736 -0.98762 33137 ft 378 kts 145°
2026-05-01 12:48 51.52579 -0.96213 33124 ft 393 kts 146°
2026-05-01 12:48 51.50332 -0.93621 33150 ft 406 kts 147°
2026-05-01 12:48 51.47976 -0.90937 33154 ft 420 kts 147°
2026-05-01 12:49 51.45560 -0.88153 33152 ft 433 kts 144°
2026-05-01 12:49 51.43223 -0.84985 33146 ft 447 kts 139°
2026-05-01 12:49 51.38586 -0.78078 33156 ft 459 kts 139°
2026-05-01 12:50 51.33902 -0.71135 33152 ft 458 kts 139°
2026-05-01 12:50 51.29233 -0.64276 33154 ft 458 kts 139°
2026-05-01 12:51 51.24524 -0.57397 33158 ft 458 kts 139°
2026-05-01 12:52 51.17483 -0.47157 33175 ft 458 kts 140°
2026-05-01 12:52 51.10405 -0.36898 33182 ft 458 kts 140°
2026-05-01 12:53 51.03420 -0.26819 33185 ft 458 kts 140°
2026-05-01 12:54 50.98718 -0.20056 33184 ft 458 kts 140°
2026-05-01 12:54 50.91620 -0.09885 33205 ft 458 kts 140°
2026-05-01 12:55 50.84515 0.00249 33173 ft 457 kts 140°
2026-05-01 12:56 50.79813 0.06937 33194 ft 456 kts 140°
2026-05-01 12:56 50.75088 0.13612 33201 ft 454 kts 141°
2026-05-01 12:57 50.70188 0.19889 33209 ft 453 kts 143°
2026-05-01 12:57 50.62823 0.29127 33203 ft 453 kts 142°
2026-05-01 12:58 50.57906 0.35371 32799 ft 457 kts 142°
2026-05-01 12:58 50.55404 0.38552 31770 ft 464 kts 142°
2026-05-01 12:59 50.50397 0.44921 29844 ft 459 kts 142°
2026-05-01 12:59 50.47932 0.48049 29007 ft 452 kts 142°
2026-05-01 12:59 50.43106 0.54150 27555 ft 439 kts 142°
2026-05-01 13:00 50.38432 0.60038 26140 ft 428 kts 142°
2026-05-01 13:00 50.36125 0.62940 25598 ft 422 kts 142°
2026-05-01 13:01 50.31490 0.68766 24864 ft 428 kts 142°
2026-05-01 13:01 50.29194 0.71653 24462 ft 419 kts 142°
2026-05-01 13:01 50.24717 0.77274 23897 ft 409 kts 142°
2026-05-01 13:02 50.22493 0.80060 23594 ft 409 kts 142°
2026-05-01 13:07 49.74748 1.24084 18028 ft 361 kts 155°
2026-05-01 13:07 49.72485 1.25766 17789 ft 360 kts 155°
2026-05-01 13:07 49.70228 1.27443 17543 ft 358 kts 155°
2026-05-01 13:08 49.67985 1.29108 17282 ft 357 kts 155°
2026-05-01 13:08 49.65749 1.30766 17049 ft 355 kts 155°
2026-05-01 13:08 49.63522 1.32418 16814 ft 354 kts 155°
2026-05-01 13:08 49.61332 1.34039 16568 ft 353 kts 155°
2026-05-01 13:09 49.59115 1.35679 16342 ft 353 kts 155°
2026-05-01 13:09 49.56901 1.37314 16092 ft 352 kts 155°
2026-05-01 13:09 49.54698 1.38939 15847 ft 351 kts 155°
2026-05-01 13:09 49.52489 1.40568 15623 ft 350 kts 155°
2026-05-01 13:10 49.50315 1.42169 15376 ft 350 kts 155°
2026-05-01 13:10 49.48112 1.43791 15149 ft 350 kts 155°
2026-05-01 13:10 49.45908 1.45412 14908 ft 349 kts 155°
2026-05-01 13:10 49.43718 1.47020 14674 ft 349 kts 155°
2026-05-01 13:11 49.41524 1.48628 14431 ft 348 kts 155°
2026-05-01 13:11 49.39359 1.50215 14196 ft 348 kts 155°
2026-05-01 13:11 49.37188 1.51805 13855 ft 344 kts 155°
2026-05-01 13:11 49.35020 1.53391 13368 ft 341 kts 155°
2026-05-01 13:12 49.32911 1.54992 12728 ft 332 kts 150°
2026-05-01 13:12 49.31207 1.57344 11960 ft 340 kts 127°
2026-05-01 13:12 49.30117 1.60495 11824 ft 329 kts 114°
2026-05-01 13:12 49.29600 1.63848 11700 ft 319 kts 98°
2026-05-01 13:13 49.29489 1.67172 11627 ft 306 kts 96°
2026-05-01 13:13 49.29380 1.70375 11479 ft 295 kts 96°
2026-05-01 13:13 49.29111 1.73399 11088 ft 283 kts 112°
2026-05-01 13:13 49.28071 1.75860 10657 ft 278 kts 137°
2026-05-01 13:14 49.26533 1.77580 10434 ft 270 kts 152°
2026-05-01 13:14 49.25421 1.78399 10274 ft 266 kts 156°
2026-05-01 13:14 49.23180 1.79855 9863 ft 262 kts 157°
2026-05-01 13:14 49.22062 1.80581 9608 ft 261 kts 157°
2026-05-01 13:15 49.19856 1.82041 9264 ft 257 kts 156°
2026-05-01 13:15 49.18753 1.82778 9144 ft 255 kts 156°
2026-05-01 13:15 49.17144 1.83856 8975 ft 256 kts 156°
2026-05-01 13:15 49.15500 1.84959 8797 ft 259 kts 156°
2026-05-01 13:16 49.13853 1.86064 8636 ft 260 kts 156°
2026-05-01 13:16 49.12186 1.87183 8463 ft 260 kts 156°
2026-05-01 13:16 49.10532 1.88294 8290 ft 260 kts 156°
2026-05-01 13:17 49.05549 1.91630 7787 ft 263 kts 156°
2026-05-01 13:17 49.03884 1.92742 7601 ft 259 kts 157°
2026-05-01 13:18 49.00715 1.95060 7232 ft 247 kts 141°
2026-05-01 13:18 48.99679 1.97188 7111 ft 254 kts 116°
2026-05-01 13:18 48.99171 1.99767 6953 ft 253 kts 105°
2026-05-01 13:18 48.98774 2.02348 6728 ft 251 kts 105°
2026-05-01 13:19 48.98379 2.04907 6503 ft 248 kts 106°
2026-05-01 13:19 48.97980 2.07457 6249 ft 245 kts 106°
2026-05-01 13:19 48.97199 2.12354 5799 ft 230 kts 106°
2026-05-01 13:20 48.97032 2.14710 5607 ft 221 kts 89°
2026-05-01 13:20 48.97176 2.17014 5337 ft 216 kts 88°
2026-05-01 13:20 48.97299 2.19270 5059 ft 212 kts 88°
2026-05-01 13:21 48.97528 2.23634 4496 ft 202 kts 88°
2026-05-01 13:21 48.97641 2.25711 4249 ft 199 kts 88°
2026-05-01 13:21 48.97754 2.27812 3986 ft 200 kts 88°
2026-05-01 13:21 48.97866 2.29911 3732 ft 200 kts 87°
2026-05-01 13:22 48.97978 2.32018 3514 ft 201 kts 90°
2026-05-01 13:22 48.98069 2.34183 3244 ft 211 kts 85°
2026-05-01 13:22 48.98173 2.36451 2920 ft 216 kts 86°
2026-05-01 13:22 48.98364 2.38720 2671 ft 212 kts 84°
2026-05-01 13:23 48.98471 2.40864 2363 ft 195 kts 90°
2026-05-01 13:23 48.98562 2.42857 2117 ft 185 kts 89°
2026-05-01 13:23 48.98658 2.44771 1866 ft 176 kts 88°
2026-05-01 13:23 48.98755 2.46549 1651 ft 159 kts 88°
2026-05-01 13:24 48.98843 2.48146 1395 ft 144 kts 88°
2026-05-01 13:24 48.98920 2.49654 1283 ft 148 kts 88°
2026-05-01 13:24 48.99004 2.51208 1062 ft 142 kts 89°
2026-05-01 13:25 48.99184 2.54218 664 ft 145 kts 84°
2026-05-01 13:25 48.99261 2.55687 506 ft 133 kts 85°
2026-05-01 13:25 48.99321 2.57044 361 ft 121 kts 85°
2026-05-01 13:25 48.99384 2.58141 365 ft 79 kts 85°
2026-05-01 13:26 48.99456 2.58653 364 ft 41 kts 65°
2026-05-01 13:26 48.99547 2.58957 362 ft 20 kts 69°
2026-05-01 13:26 48.99598 2.59153 363 ft 20 kts 75°
2026-05-01 13:26 48.99618 2.59360 361 ft 20 kts 85°
2026-05-01 13:27 48.99628 2.59565 365 ft 14 kts 86°
2026-05-01 13:27 48.99662 2.59684 364 ft 13 kts 24°
2026-05-01 13:27 48.99691 2.59687 364 ft 0 kts 353°
2026-05-01 13:28 48.99692 2.59687 364 ft 2 kts 353°
2026-05-01 13:28 48.99764 2.59675 365 ft 16 kts 354°
2026-05-01 13:29 48.99967 2.59654 359 ft 4 kts 356°
2026-05-01 13:29 48.99999 2.59650 362 ft 0 kts 356°
2026-05-01 13:30 49.00076 2.59565 368 ft 11 kts 279°
2026-05-01 13:31 49.00063 2.59262 364 ft 18 kts 264°
2026-05-01 13:31 49.00028 2.58636 359 ft 19 kts 264°
2026-05-01 13:32 49.00005 2.58200 360 ft 22 kts 265°
2026-05-01 13:33 48.99968 2.57524 359 ft 23 kts 264°
2026-05-01 13:33 48.99959 2.57121 367 ft 19 kts 275°
2026-05-01 13:34 48.99929 2.56739 365 ft 20 kts 269°
2026-05-01 13:34 48.99907 2.56327 361 ft 21 kts 265°
2026-05-01 13:35 48.99903 2.55874 366 ft 22 kts 282°
2026-05-01 13:35 48.99936 2.55642 361 ft 23 kts 262°
2026-05-01 13:35 48.99881 2.55156 359 ft 24 kts 265°
2026-05-01 13:36 48.99867 2.54901 362 ft 24 kts 265°
2026-05-01 13:36 48.99852 2.54646 363 ft 25 kts 265°
2026-05-01 13:36 48.99825 2.54138 360 ft 23 kts 266°
2026-05-01 13:37 48.99817 2.53895 359 ft 22 kts 263°
2026-05-01 13:37 48.99795 2.53678 365 ft 17 kts 256°
2026-05-01 13:37 48.99718 2.53535 367 ft 18 kts 219°
2026-05-01 13:37 48.99624 2.53396 368 ft 20 kts 241°
2026-05-01 13:38 48.99503 2.53221 364 ft 6 kts 262°
2026-05-01 13:38 48.99501 2.53188 365 ft 0 kts 265°